Regional Weather Roundup
Issued by NWS Charleston, WV

Home | Current Version | Previous Version | Text Only | Print | Product List | Glossary Off
Versions: 1 2 3 4 5 6 7 8 9 10 11 12 13 14 15 16 17 18 19 20 21 22 23 24 25 26 27 28 29 30 31 32 33 34 35 36 37 38 39 40 41 42 43 44 45 46 47 48 49 50

000
ASUS41 KRLX 012010
RWRRLX
West Virginia Regional Weather Roundup
National Weather Service Charleston WV
400 PM EDT WED APR 01 2015

Note: "fair" indicates few or no clouds below 12,000 feet with no
significant weather and/or obstructions to visibility.

WVZ003-012100-
Northern Panhandle of West Virginia

CITY           SKY/WX    TMP DP  RH WIND       PRES   REMARKS
WHEELING       SUNNY     58  27  30 W6        30.13S
$$

WVZ009-012100-
Northwest West Virginia

CITY           SKY/WX    TMP DP  RH WIND       PRES   REMARKS
PARKERSBURG    SUNNY     61  26  26 CALM      30.17F
$$

WVZ006-012100-
Western West Virginia

CITY           SKY/WX    TMP DP  RH WIND       PRES   REMARKS
HUNTINGTON     SUNNY     63  23  21 CALM      30.13F
$$

WVZ015-012100-
West Central West Virginia

CITY           SKY/WX    TMP DP  RH WIND       PRES   REMARKS
CHARLESTON     SUNNY     62  23  22 VRB3      30.14F
$$

WVZ022-031-012100-
North Central West Virginia

CITY           SKY/WX    TMP DP  RH WIND       PRES   REMARKS
CLARKSBURG     SUNNY     58  24  27 VRB6      30.15F
MORGANTOWN     MOSUNNY   57  22  25 NW8       30.15F
$$

WVZ025-035-042-045-012100-
Southern West Virginia

CITY           SKY/WX    TMP DP  RH WIND       PRES   REMARKS
BECKLEY        SUNNY     59  13  16 N12       30.13F
LOGAN            N/A     63  16  16 CALM      30.09F
BLUEFIELD      SUNNY     62  13  14 VRB5G17   30.14R
LEWISBURG      SUNNY     61  17  18 N6        30.12S
$$

WVZ047-012100-
Northern Mountains of West Virginia

CITY           SKY/WX    TMP DP  RH WIND       PRES   REMARKS
ELKINS         SUNNY     55  22  27 VRB5      30.15S
$$

WVZ052-012100-
Eastern Panhandle of West Virginia

CITY           SKY/WX    TMP DP  RH WIND       PRES   REMARKS
MARTINSBURG    PTSUNNY   58  25  28 N8        30.14S
PETERSBURG     SUNNY     58  13  17 NW10G17   30.13S
$$


USA.gov is the U.S. government's official web portal to all federal, state and local government web resources and services.